Weather in Bolton

United Kingdom     53°34′29″N   2°25′28″W
temp.,
°C
wind,
m/s
gust,
m/s
humid.,
%
clouds,
%
prec.,
mm/h
press.,
hPa
HPBL,
m
4 march, thu
thu400:00+3ene368119 0.0 1027337
03:00+3ne367946 0.0 1026413
06:00+3ne367657 0.0 1026667
09:00+4ne367699 0.0 1026593
12:00+6ene4662100 0.1 10271137
15:00+8ene2655100 0.0 10281281
18:00+5ne5976100 0.2 1028732
21:00+3ene5106421 0.0 1030684
5 march, fri
fri500:00+2ne266411 0.0 1032645
03:00+1nne12693 0.0 1032115
06:00+1nne127042 0.0 103274
09:00+3ene255970 0.0 1033983
12:00+6e234565 0.0 10341233
15:00+7e224211 0.0 10341385
18:00+5e34537 0.0 1034511
21:00+3sse135961 0.0 1036297
6 march, sat
sat600:00+2sse136268 0.0 1036194
03:00+1s13680 0.0 1035156
06:000sse127215 0.0 103591
09:00+2sse236275 0.0 1034296
12:00+5ssw234646 0.0 1034955
15:00+7ssw23431 0.0 10321070
18:00+5wnw12564 0.0 1031140
21:00+3nnw246741 0.0 1031242
7 march, sun
sun700:00+2nnw017521 0.0 103030
03:00+1ssw117917 0.0 102859
06:00+2ssw237355 0.0 1028181
09:00+3ssw1267100 0.0 1027194
12:00+6w236097 0.0 1026549
15:00+8wnw246486 0.0 1025777
18:00+6nw247789 0.0 1024459
21:00+4nw118838 0.0 102533
8 march, mon
mon800:00+3sw119167 0.0 102522
03:00+3s1290100 0.0 102484
06:00+2sse249099 0.0 1023140
09:00+3s247987 0.0 1023245
12:00+8s346475 0.0 1022574
15:00+8s367084 0.0 1020694
18:00+8ssw377792 0.0 1019473
21:00+7s3882100 0.0 1017451